User: anonymous   Login
Location: Caltech
(34.1382°N, 118.1253°W)
Time: 15:15:20
(UTC-07:00)
Language:

Cosmos 1980 Rocket - Orbit

View from above orbital plane
View from above orbital plane
View from above satellite
View from above satellite

Ground track
Ground track

The orbit data is extracted from the following two-line orbital elements,

1 19650U 88102B   16150.91726139 -.00000093 +00000-0 -22998-4 0  9999
2 19650 070.9991 100.9939 0012751 039.4790 320.7260 14.15738718421470
Epoch (UTC): 29 May 2016 22:00:51
Eccentricity: 0.0012751
inclination: 70.9991°
perigee height: 830 km
apogee height: 849 km
right ascension of ascending node: 100.9939°
argument of perigee: 39.4790°
revolutions per day: 14.15738718
mean anomaly at epoch: 320.7260°
orbit number at epoch: 42147

The dashed part of the orbit path shows where the satellite is in the earth's shadow,  

DLR